Weather History for CYXU - September, 2012

Change the Weather History Date:

Monday, September 17, 2012

  Actual Average Record
Temperature  
Mean Temperature 62 °F -  
Max Temperature 73 °F 68 °F 78 °F (1998)
Min Temperature 50 °F 49 °F 39 °F (2013)
Degree Days  
Heating Degree Days 4    
Growing Degree Days 12 (Base 50)    
Moisture  
Dew Point 52 °F    
Average Humidity 75    
Maximum Humidity 100    
Minimum Humidity 30    
Precipitation  
Precipitation 0.00 in - - ()
Sea Level Pressure  
Sea Level Pressure 29.96 in    
Wind  
Wind Speed 5 mph ()    
Max Wind Speed 16 mph    
Max Gust Speed 24 mph    
Visibility 11.9 miles    
Events Fog    
Averages and records for this station are not official NWS values.
T = Trace of Precipitation, MM = Missing Value Source: Averaged Metar Reports

Daily Weather History Graph

Daily Weather History Graph

Search for Another Location

Airport or City:

Trip Planner

Search our weather history database for the weather conditions in past years. The results will help you decide how hot, cold, wet, or windy it might be!

Date:

Astronomy

Sep. 17, 2012 Rise Set
Actual Time 7:06 AM EDT 7:30 PM EDT
Civil Twilight 6:38 AM EDT 7:58 PM EDT
Nautical Twilight 6:04 AM EDT 8:31 PM EDT
Astronomical Twilight 5:30 AM EDT 9:06 PM EDT
Moon 8:58 AM EDT (9/17) 8:06 PM EDT (9/17)
Length of Visible Light 13h 19m
Length of Day
12h 23m
Waxing Crescent, 3% of the Moon is Illuminated
Sep 17
Waxing Crescent
Sep 22
First Quarter
Sep 29
Full
Oct 8
Last Quarter
Oct 15
New

Hourly Weather History & Observations

Time (EDT) Temp. Dew Point Humidity Pressure Visibility Wind Dir Wind Speed Gust Speed Precip Events Conditions
12:00 AM 57.2 °F 51.8 °F 82% 30.05 in 15.0 mi South 2.3 mph - N/A   Clear
1:00 AM 53.6 °F 51.8 °F 94% 30.05 in 15.0 mi Calm Calm - N/A   Clear
2:00 AM 53 °F 50 °F 86% 30.05 in - Calm Calm - -  
2:00 AM 53.6 °F 50.0 °F 88% 30.05 in 15.0 mi Calm Calm - N/A   Clear
3:00 AM 55.4 °F 51.8 °F 88% 30.04 in 15.0 mi South 2.3 mph - N/A   Clear
4:00 AM 53.6 °F 51.8 °F 94% 30.03 in 15.0 mi ESE 3.5 mph - N/A   Clear
5:00 AM 53.6 °F 51.8 °F 94% 30.02 in 8.0 mi ESE 4.6 mph - N/A Fog Patches of Fog
6:00 AM 51.8 °F 50.0 °F 94% 30.01 in 15.0 mi ESE 4.6 mph - N/A Fog Patches of Fog
6:22 AM 51.8 °F 51.8 °F 100% 30.01 in 1.0 mi ESE 3.5 mph - N/A   Clear
7:00 AM 51.8 °F 51.8 °F 100% 30.02 in 0.8 mi ESE 2.3 mph - N/A   Partly Cloudy
7:12 AM 53.6 °F 53.6 °F 100% 30.02 in 1.0 mi Calm Calm - N/A   Partly Cloudy
7:46 AM 50.0 °F 50.0 °F 100% 30.03 in 3.0 mi East 3.5 mph - N/A   Partly Cloudy
8:00 AM 52 °F 52 °F 100% 30.03 in 4 mi East 4.6 mph - -  
8:00 AM 51.8 °F 51.8 °F 100% 30.03 in 4.0 mi East 4.6 mph - N/A   Partly Cloudy
9:00 AM 59.0 °F 57.2 °F 94% 30.02 in 12.0 mi SE 2.3 mph - N/A   Partly Cloudy
10:00 AM 68.0 °F 59.0 °F 73% 30.01 in 15.0 mi South 8.1 mph - N/A   Partly Cloudy
11:00 AM 69.8 °F 53.6 °F 56% 30.00 in 15.0 mi SW 15.0 mph - N/A   Partly Cloudy
12:00 PM 71.6 °F 50.0 °F 46% 29.99 in 15.0 mi South 16.1 mph - N/A   Scattered Clouds
1:00 PM 71.6 °F 51.8 °F 50% 29.97 in 15.0 mi South 12.7 mph 24.2 mph N/A   Scattered Clouds
2:00 PM 73 °F 48 °F 30% 29.94 in - South 15.0 mph - -  
2:00 PM 73.4 °F 48.2 °F 41% 29.94 in 15.0 mi South 13.8 mph 19.6 mph N/A   Mostly Cloudy
3:00 PM 73.4 °F 51.8 °F 47% 29.91 in 15.0 mi South 15.0 mph - N/A   Scattered Clouds
4:00 PM 71.6 °F 50.0 °F 46% 29.90 in 15.0 mi South 15.0 mph - N/A   Mostly Cloudy
5:00 PM 69.8 °F 51.8 °F 53% 29.89 in 15.0 mi South 16.1 mph - N/A   Mostly Cloudy
6:00 PM 68.0 °F 51.8 °F 56% 29.88 in 15.0 mi South 11.5 mph 18.4 mph N/A   Mostly Cloudy
7:00 PM 66.2 °F 51.8 °F 60% 29.85 in 15.0 mi SSE 8.1 mph - N/A   Overcast
8:00 PM 65 °F 54 °F 60% 29.85 in - SSE 6.9 mph - -   Overcast
8:00 PM 64.4 °F 53.6 °F 68% 29.85 in 15.0 mi SSE 6.9 mph - N/A   Overcast
9:00 PM 62.6 °F 55.4 °F 77% 29.83 in 15.0 mi SE 8.1 mph - N/A   Mostly Cloudy
10:00 PM 62.6 °F 55.4 °F 77% 29.82 in 15.0 mi SE 6.9 mph - N/A   Mostly Cloudy
11:00 PM 62.6 °F 55.4 °F 77% 29.79 in 15.0 mi SSE 6.9 mph - N/A   Overcast